• In Slovakia
  • List of Countries
  • For 7 days
  • Water Temperature
  • Satellite Maps
  • Weather Map
  • Weather Widgets
  • user-avatar
    Login

    Hourly Weather Mingachevir

    Today, 11 December, Monday

    Time Temperature Precipitation Wind Pressure Humidity
    00:00 +7°C° 0 mm 1 mps 756 mmHg 56%
    01:00 +7°C° 0 mm 1 mps 756 mmHg 55%
    02:00 +7°C° 0 mm 1 mps 756 mmHg 54%
    03:00 +6°C° 0 mm 2 mps 756 mmHg 54%
    04:00 +6°C° 0 mm 2 mps 756 mmHg 52%
    05:00 +6°C° 0 mm 2 mps 756 mmHg 50%
    06:00 +5°C° 0 mm 3 mps 756 mmHg 48%
    07:00 +7°C° 0 mm 3 mps 756 mmHg 45%
    08:00 +8°C° 0 mm 3 mps 756 mmHg 41%
    09:00 +8°C° 0 mm 4 mps 756 mmHg 38%
    10:00 +11°C° 0 mm 4 mps 756 mmHg 35%
    11:00 +12°C° 0 mm 5 mps 756 mmHg 32%
    12:00 +14°C° 0 mm 6 mps 756 mmHg 28%
    13:00 +14°C° 0 mm 6 mps 756 mmHg 29%
    14:00 +14°C° 0 mm 5 mps 756 mmHg 30%
    15:00 +15°C° 0 mm 5 mps 757 mmHg 30%
    16:00 +13°C° 0 mm 5 mps 758 mmHg 34%
    17:00 +12°C° 0 mm 4 mps 759 mmHg 39%
    18:00 +11°C° 0 mm 4 mps 760 mmHg 43%
    19:00 +10°C° 0 mm 4 mps 760 mmHg 44%
    20:00 +10°C° 0 mm 3 mps 761 mmHg 45%
    21:00 +9°C° 0 mm 2 mps 762 mmHg 47%
    22:00 +9°C° 0 mm 2 mps 762 mmHg 48%
    23:00 +8°C° 0 mm 2 mps 762 mmHg 48%

    Tomorrow, 12 December, Tuesday

    Time Temperature Precipitation Wind Pressure Humidity
    00:00 +9°C° 0 mm 1 mps 763 mmHg 49%
    01:00 +8°C° 0 mm 1 mps 763 mmHg 51%
    02:00 +8°C° 0 mm 1 mps 763 mmHg 52%
    03:00 +8°C° 0 mm 1 mps 763 mmHg 54%
    04:00 +7°C° 0 mm 1 mps 763 mmHg 56%
    05:00 +7°C° 0 mm 1 mps 763 mmHg 59%
    06:00 +6°C° 0 mm 1 mps 763 mmHg 62%
    07:00 +7°C° 0 mm 1 mps 764 mmHg 62%
    08:00 +8°C° 0 mm 1 mps 764 mmHg 62%
    09:00 +9°C° 0 mm 1 mps 764 mmHg 61%
    10:00 +9°C° 0 mm 1 mps 763 mmHg 60%
    11:00 +10°C° 0 mm 1 mps 763 mmHg 59%
    12:00 +11°C° 0 mm 1 mps 762 mmHg 57%
    13:00 +11°C° 0 mm 1 mps 762 mmHg 57%
    14:00 +11°C° 0 mm 1 mps 762 mmHg 57%
    15:00 +12°C° 0 mm 1 mps 762 mmHg 57%
    16:00 +11°C° 0 mm 1 mps 762 mmHg 63%
    17:00 +10°C° 0 mm 1 mps 762 mmHg 68%
    18:00 +9°C° 0 mm 1 mps 762 mmHg 73%
    19:00 +8°C° 0 mm 1 mps 762 mmHg 75%
    20:00 +8°C° 0 mm 1 mps 762 mmHg 77%
    21:00 +8°C° 0 mm 1 mps 762 mmHg 79%
    22:00 +7°C° 0 mm 1 mps 762 mmHg 80%
    23:00 +7°C° 0 mm 1 mps 762 mmHg 80%

    Day after tomorrow, 13 December, Wednesday

    Time Temperature Precipitation Wind Pressure Humidity
    00:00 +7°C° 0 mm 1 mps 762 mmHg 80%
    01:00 +7°C° 0 mm 1 mps 762 mmHg 80%
    02:00 +5°C° 0 mm 0 mps 761 mmHg 80%
    03:00 +5°C° 0 mm 0 mps 761 mmHg 81%
    04:00 +5°C° 0 mm 0 mps 761 mmHg 80%
    05:00 +5°C° 0 mm 0 mps 761 mmHg 80%
    06:00 +5°C° 0 mm 0 mps 761 mmHg 80%
    07:00 +6°C° 0 mm 1 mps 761 mmHg 78%
    08:00 +7°C° 0 mm 1 mps 761 mmHg 75%
    09:00 +8°C° 0 mm 1 mps 761 mmHg 72%
    10:00 +9°C° 0 mm 1 mps 760 mmHg 69%
    11:00 +10°C° 0 mm 1 mps 760 mmHg 66%
    12:00 +11°C° 0 mm 1 mps 759 mmHg 63%
    13:00 +11°C° 0 mm 1 mps 759 mmHg 63%
    14:00 +11°C° 0 mm 1 mps 759 mmHg 63%
    15:00 +12°C° 0 mm 1 mps 758 mmHg 62%
    16:00 +11°C° 0 mm 1 mps 759 mmHg 68%
    17:00 +10°C° 0 mm 1 mps 759 mmHg 74%
    18:00 +9°C° 0 mm 1 mps 759 mmHg 80%
    19:00 +8°C° 0 mm 1 mps 759 mmHg 82%
    20:00 +8°C° 0 mm 1 mps 759 mmHg 84%
    21:00 +8°C° 0 mm 1 mps 759 mmHg 86%
    22:00 +8°C° 0 mm 1 mps 759 mmHg 87%
    23:00 +7°C° 0 mm 1 mps 759 mmHg 88%

    14 December, Thursday

    Time Temperature Precipitation Wind Pressure Humidity
    00:00 +7°C° 0 mm 1 mps 759 mmHg 89%
    01:00 +7°C° 0 mm 1 mps 759 mmHg 90%
    02:00 +7°C° 0 mm 1 mps 759 mmHg 90%
    03:00 +6°C° 0 mm 0 mps 758 mmHg 90%
    04:00 +6°C° 0 mm 0 mps 758 mmHg 90%
    05:00 +6°C° 0 mm 0 mps 758 mmHg 90%
    06:00 +6°C° 0 mm 0 mps 758 mmHg 90%
    07:00 +8°C° 0 mm 1 mps 759 mmHg 87%
    08:00 +8°C° 0 mm 1 mps 759 mmHg 85%
    09:00 +9°C° 0 mm 1 mps 759 mmHg 83%
    10:00 +10°C° 0 mm 1 mps 759 mmHg 80%
    11:00 +10°C° 0 mm 1 mps 758 mmHg 77%
    12:00 +10°C° 0 mm 2 mps 758 mmHg 75%
    13:00 +10°C° 0 mm 2 mps 757 mmHg 74%
    14:00 +10°C° 0 mm 2 mps 757 mmHg 74%
    15:00 +10°C° 0 mm 2 mps 757 mmHg 74%
    16:00 +10°C° 0 mm 2 mps 757 mmHg 78%
    17:00 +10°C° 0 mm 1 mps 757 mmHg 81%
    18:00 +9°C° 0 mm 1 mps 758 mmHg 85%
    19:00 +9°C° 0 mm 1 mps 758 mmHg 86%
    20:00 +9°C° 0 mm 1 mps 758 mmHg 87%
    21:00 +7°C° 0 mm 2 mps 758 mmHg 89%
    22:00 +8°C° 0 mm 1 mps 757 mmHg 88%
    23:00 +8°C° 0 mm 1 mps 757 mmHg 88%

    15 December, Friday

    Time Temperature Precipitation Wind Pressure Humidity
    00:00 +8°C° 0 mm 1 mps 757 mmHg 88%
    01:00 +8°C° 0 mm 1 mps 757 mmHg 88%
    02:00 +8°C° 0 mm 1 mps 757 mmHg 87%
    03:00 +8°C° 0 mm 1 mps 757 mmHg 87%
    04:00 +8°C° 0 mm 1 mps 757 mmHg 87%
    05:00 +8°C° 0 mm 1 mps 757 mmHg 87%
    06:00 +8°C° 0 mm 1 mps 757 mmHg 87%
    07:00 +8°C° 0 mm 1 mps 757 mmHg 84%
    08:00 +9°C° 0 mm 1 mps 757 mmHg 82%
    09:00 +9°C° 0 mm 1 mps 757 mmHg 79%
    10:00 +10°C° 0 mm 1 mps 757 mmHg 76%
    11:00 +11°C° 0 mm 1 mps 757 mmHg 73%
    12:00 +11°C° 0 mm 1 mps 756 mmHg 69%
    13:00 +11°C° 0 mm 1 mps 756 mmHg 69%
    14:00 +12°C° 0 mm 1 mps 756 mmHg 69%
    15:00 +12°C° 0 mm 1 mps 757 mmHg 68%
    16:00 +11°C° 0 mm 1 mps 757 mmHg 74%
    17:00 +10°C° 0 mm 1 mps 758 mmHg 79%
    18:00 +9°C° 0 mm 1 mps 758 mmHg 84%
    19:00 +9°C° 0 mm 1 mps 759 mmHg 86%
    20:00 +8°C° 0 mm 1 mps 759 mmHg 88%
    21:00 +8°C° 0 mm 1 mps 759 mmHg 90%
    22:00 +8°C° 0 mm 1 mps 759 mmHg 90%
    23:00 +8°C° 0 mm 1 mps 759 mmHg 90%

    16 December, Saturday

    Time Temperature Precipitation Wind Pressure Humidity
    00:00 +8°C° 0 mm 1 mps 760 mmHg 90%
    01:00 +8°C° 0 mm 1 mps 760 mmHg 90%
    02:00 +8°C° 0 mm 1 mps 760 mmHg 90%
    03:00 +8°C° 0 mm 1 mps 760 mmHg 89%
    04:00 +8°C° 0 mm 1 mps 760 mmHg 90%
    05:00 +8°C° 0 mm 1 mps 760 mmHg 90%
    06:00 +7°C° 0 mm 0 mps 760 mmHg 90%
    07:00 +8°C° 0 mm 1 mps 761 mmHg 88%
    08:00 +9°C° 0 mm 1 mps 761 mmHg 85%
    09:00 +9°C° 0 mm 1 mps 761 mmHg 83%
    10:00 +10°C° 0 mm 1 mps 761 mmHg 81%
    11:00 +10°C° 0 mm 1 mps 760 mmHg 78%
    12:00 +10°C° 0 mm 2 mps 760 mmHg 76%
    13:00 +10°C° 0 mm 2 mps 760 mmHg 76%
    14:00 +11°C° 0 mm 1 mps 760 mmHg 75%
    15:00 +11°C° 0 mm 1 mps 760 mmHg 75%
    16:00 +10°C° 0 mm 1 mps 760 mmHg 79%
    17:00 +10°C° 0 mm 1 mps 760 mmHg 83%
    18:00 +9°C° 0 mm 1 mps 761 mmHg 87%
    19:00 +9°C° 0 mm 1 mps 761 mmHg 88%
    20:00 +9°C° 0 mm 1 mps 761 mmHg 89%
    21:00 +8°C° 0 mm 2 mps 761 mmHg 89%
    22:00 +8°C° 0 mm 1 mps 761 mmHg 89%
    23:00 +8°C° 0 mm 1 mps 761 mmHg 90%
    Show more